Погода в Нур-Султане

Казахстан     51°07′41″N   71°25′49″E
темп.,
°C
ветер,
м/с
пор.,
м/с
влажн.,
%
обл.,
%
осадки,
мм/ч
давл.,
гПа
погр.,
м
1 марта, пн
пн100:00+1юз81599100 1.8 1007681
03:00+1зюз81496100 0.2 1008790
06:00−1зюз91887100 0.6 1008825
09:00−2зюз71490100 0.1 1009646
12:00−2зюз8148679 0.1 1010864
15:00−2зюз9148439 0.0 1011999
18:00−7зюз6118830 0.0 1013389
21:00−11зюз499653 0.0 1016168
2 марта, вт
вт200:00−13юз459775 0.1 101879
03:00−14юз4697100 0.1 1018135
06:00−15юз359797 0.2 1019119
09:00−16юз469798 0.1 1018153
12:00−14юз469598 0.1 1018265
15:00−12юз5794100 0.1 1017397
18:00−13зюз5893100 0.1 1018427
21:00−17зюз51197100 0.1 1019270
3 марта, ср
ср300:00−19юз51098100 0.1 1020237
03:00−17юз61295100 0.1 1020387
06:00−19юз61298100 0.1 1021289
09:00−20ююз71396100 0.0 1021298
12:00−14юз8128999 0.0 1020423
15:00−11ююз8138885 0.0 1019534
18:00−9ююз8149092 0.1 1019573
21:00−9ююз91791100 0.1 1018468
4 марта, чт
чт400:00−6ююз101890100 0.1 1017642
03:00−5ююз111890100 0.1 1015817
06:00−5ююз101792100 0.4 1015627
09:00−5ююз101889100 0.3 1014591
12:00−3ююз111985100 0.3 1013741
15:00−2ююз121894100 0.3 1011954
18:00−2ююз91685100 0.4 1011776
21:00−3ююз81594100 0.1 1010569
5 марта, пт
пт500:00−2ююз51097100 1.5 1008538
03:00−2з5996100 2.4 1008476
06:00−7зсз6119396 2.5 1013279
09:00−14зюз5119124 0.0 1019238
12:00−10юз8148512 0.0 1020460
15:00−7юз1017810 0.0 1020717
18:00−6юз1018770 0.0 1021775
21:00−7юз10198029 0.0 1021722